Other Public Products
Issued by NWS Grand Forks, ND

Home | Current Version | Previous Version | Graphics & Text | Print | Product List | Glossary On
Versions: 1 2 3 4 5 6 7 8 9 10 11 12 13 14 15 16 17 18 19 20 21 22 23 24 25 26 27 28 29 30 31 32 33 34 35 36 37 38 39 40 41 42 43 44 45 46 47 48 49 50
000
FPUS83 KFGF 170710
OPUFGF
PRAIRIE TO PINES WEATHER ROUNDUP
NATIONAL WEATHER SERVICE EASTERN NORTH DAKOTA/GRAND FORKS ND
200 AM CDT THU APR 17 2014

 **SATELLITE DATA USED TO AUGMENT SKY COVER AT AUTOMATED STATIONS**
 *****  WEATHER ACROSS EASTERN NORTH DAKOTA  *****

CITY           SKY/WX    TMP DP  RH WIND       PRES   REMARKS
GRAND FORKS    CLEAR     22  19  89 N6        30.28R WCI  14
GRAND FORKS AF CLEAR     23  15  72 N10       30.32S WCI  13
GRAND CITY NWS   N/A     27 N/A N/A N7          N/A  WCI  19
BUXTON         NOT AVBL
DEVILS LAKE    CLEAR     21  10  63 NE9       30.32S WCI  11
FARGO          CLEAR     26  17  68 N6        30.26R WCI  19
WAHPETON ARPT  SUNNY     27  19  74 N7        30.24S WCI  19
$$

 *****  WEATHER ACROSS CENTRAL AND WESTERN NORTH DAKOTA  *****

CITY           SKY/WX    TMP DP  RH WIND       PRES   REMARKS
JAMESTOWN      CLEAR     24  18  77 N9        30.27R WCI  14
BISMARCK       CLOUDY    29  16  58 E9        30.29R WCI  20
MINOT          CLOUDY    24  14  65 E9        30.31S WCI  14
MINOT AFB      CLOUDY    24  15  68 E12       30.32R WCI  13
GARRISON         N/A     26  15  63 E13       30.28S WCI  15
WILLISTON        N/A    N/A N/A N/A MISG      30.26F
DICKINSON      CLOUDY    27  21  78 E7        30.19F WCI  19
HETTINGER      CLOUDY    28  20  71 E6        30.21R WCI  22
$$

 *****  OTHER OBSERVATIONS NORTHEAST NORTH DAKOTA  *****

CITY           SKY/WX    TMP DP  RH WIND       PRES   REMARKS
WALHALLA       FAIR      21  16  79 NW8       30.38R WCI  12
LANGDON        FAIR      19  12  73 NE9       30.32S WCI   9
CAVALIER       FAIR      25  14  63 N12       30.36R WCI  14
GRAFTON        FAIR      25  16  68 N10       30.34S WCI  15
CANDO          FAIR      18  14  86 N7        30.34S WCI   8
FORT TOTTEN      N/A     21  12  67 N5        29.95S WCI  15
ROLLA          FAIR      19  12  73 N7        30.34R WCI  10
RUGBY          FAIR      19  14  79 NE8       30.33R WCI   9
 ***** THE ABOVE OBSERVATIONS ARE NON NWS ARE NOT QUALITY
        CONTROLLED AND MAY MIS-REPORT RAIN FOR SNOW...
$$

 *****  OTHER OBSERVATIONS SOUTHEAST NORTH DAKOTA *****

CITY           SKY/WX    TMP DP  RH WIND       PRES   REMARKS
COOPERSTOWN    FAIR      25  23  93 N12       30.28S WCI  14
VALLEY CITY    NOT AVBL
OAKES          FAIR      21  16  79 N9        30.25R WCI  11
GWINNER        SUNNY     27  19  74 N8        30.25S WCI  18
SHEYENNE NWR     N/A     27  18  68 N6        29.95  WCI  20
BUFFALO        NOT AVBL
WYNDMERE       NOT AVBL
 ***** THE ABOVE OBSERVATIONS ARE NON NWS ARE NOT QUALITY
       CONTROLLED AND MAY MIS-REPORT RAIN FOR SNOW...
$$

  *****  WEATHER ACROSS NORTHERN MINNESOTA  *****

CITY           SKY/WX    TMP DP  RH WIND       PRES   REMARKS
FLAG ISLAND    CLEAR     21   7  53 N5        30.32R WCI  15
WARROAD        CLEAR     23   9  54 N6        30.31S WCI  16
ROSEAU         CLEAR     21  14  73 N3        30.31S
HALLOCK        CLOUDY    25  12  58 NE9       30.33S WCI  15
THF RVR FALLS  CLEAR     27  10  50 N9        30.29R WCI  17
HALSTAD          N/A     26  18  71 N10         N/A  WCI  16
FOSSTON        CLEAR     23  10  58 N7        30.25S WCI  15
BAUDETTE       CLEAR     25   6  44 N7        30.28S WCI  17
WASKISH        PTCLDY    25   9  50 N6        30.26S WCI  18
CROOKSTON      CLEAR     27  19  74 N7        30.30S WCI  19
$$
  *****  WEATHER ACROSS CENTRAL AND WEST MINNESOTA  *****

CITY           SKY/WX    TMP DP  RH WIND       PRES   REMARKS
BEMIDJI        CLEAR     23  11  61 N5        30.22S WCI  17
PARK RAPIDS    CLEAR     23  18  81 N7        30.19R WCI  15
WADENA         CLEAR     21  18  86 N7        30.18R WCI  13
DETROIT LAKES  CLEAR     27  19  74 CALM      30.23R
MOORHEAD       NOT AVBL
FERGUS FALLS   CLEAR     27  18  69 N7        30.20S WCI  19
ELBOW LAKE     FAIR      23  19  85 N9        30.19S WCI  13
MORRIS MN      CLEAR     21  18  86 N12       30.18R WCI   9
STAPLES        CLEAR     21  18  86 N9        30.17R WCI  11
WHEATON        CLEAR     27  21  80 N6        30.24S WCI  20
$$
  *****  WEATHER ELSEWHERE ACROSS MINNESOTA  *****

CITY           SKY/WX    TMP DP  RH WIND       PRES   REMARKS
DULUTH         LGT SNOW  28  24  85 NE17G25   30.10F VSB 3/4 WCI  16
INTRNTL FALLS  MOCLDY    25   8  48 N7        30.26S WCI  17
ELY            LGT SNOW  23  21  93 NE7       30.19F WCI  15
CLOQUET        LGT SNOW  27  25  93 NE10      30.11S WCI  17
BRAINERD       CLOUDY    30  20  66 NE12      30.14F WCI  20
HIBBING        LGT SNOW  25  20  81 NE9       30.17S WCI  15
ALEXANDRIA     CLEAR     23  18  81 N13       30.15S WCI  11
SAINT CLOUD    CLOUDY    29  22  75 N12G20    30.09R WCI  19
MINNEAPOLIS    CLOUDY    28  28 100 N18G25    29.99R WCI  15
$$

  *****  WEATHER ACROSS SOUTH DAKOTA  *****

CITY           SKY/WX    TMP DP  RH WIND       PRES   REMARKS
SIOUX FALLS    CLOUDY    28  23  81 N13       30.18R WCI  17
BROOKINGS      NOT AVBL
WATERTOWN      CLEAR     18  15  88 N12       30.18R WCI   5
HURON          CLEAR     20  17  88 NW7       30.25R WCI  11
SISSETON         N/A     21  17  84 N8        30.23R WCI  11
ABERDEEN       CLEAR     20  17  88 N8        30.26R WCI  10
MITCHELL       CLEAR     26  21  81 NW8       30.24R WCI  18
PIERRE         CLOUDY    27  20  75 N3        30.24S
MOBRIDGE       PTCLDY    27  17  66 E13       30.23R WCI  16
RAPID CITY     CLOUDY    31  25  78 S9        30.17S WCI  23
$$

  *****  SOME WEATHER IN NEARBY STATES *****

CITY           SKY/WX    TMP DP  RH WIND       PRES   REMARKS
GLASGOW MT     CLEAR     24  19  81 E14       30.16R WCI  12
GREAT FALLS MT PTCLDY    33  29  85 S9        29.93F
CHEYENNE WY    CLOUDY    32  29  88 SE10      30.08S WCI  24
SCOTTSBLUFF NE CLOUDY    35  30  82 SE9       30.16S
OMAHA NE       CLOUDY    35  28  75 NW18G26   30.15R WCI  24
DES MOINES IA  CLOUDY    38  31  76 NW16      30.06R
DAVENPORT IA   MOCLDY    47  27  45 S25G33    29.99F
CHICAGO IL     MOCLDY    42  23  46 SE13      30.14F
EAU CLAIRE WI  LGT RAIN  39  36  89 E13       29.93F
LA CROSSE WI   LGT RAIN  49  30  48 SE17G28   29.88F
$$

  *****  SOME NATIONAL WEATHER *****

CITY           SKY/WX    TMP DP  RH WIND       PRES   REMARKS
LA GUARDIA NY  PTCLDY    38  19  46 NE10      30.62R
RALEIGH NC     CLEAR     36  28  73 NE5       30.48R
ATLANTA GA     PTCLDY    44  31  60 E9        30.33S
NEW ORLEANS LA PTCLDY    51  47  86 CALM      30.14F
OKLAHOMA CITY  PTCLDY    49  36  61 S9        30.05R
ALBUQUERQUE NM CLOUDY    56  24  29 NE7       30.00R
SALT LAKE CITY CLEAR     42  17  36 SE8       30.03R
LOS ANGELES CA CLEAR     59  52  77 E5        29.87R
BOISE ID       CLEAR     46  22  38 S8        29.99R
SEATTLE WA     LGT RAIN  50  48  93 S10       29.94F
$$

*** WEATHER ACROSS MANITOBA...SASKATCHEWAN AND ONTARIO ***
                ***ONTARIO***

CITY           SKY/WX    TMP DP  RH WIND       PRES   REMARKS
GERALDTON      PTCLDY    10   1  67 E3        30.39S
THUNDER BAY    LGT SNOW  27  25  93 E16       30.33S WCI  14
SIOUX LOOKOUT  PTCLDY    19   1  45 E5        30.34R WCI  13
TORONTO        PTCLDY    32  21  64 E9        30.54S WCI  24
BIG TROUT LK   CLEAR     -2  -8  78 W2        30.39S
PICKLE LAKE    NOT AVBL
DRYDEN         PTCLDY    18   1  49 NE6       30.31S WCI   9
KENORA         CLEAR     19   1  45 NE7       30.32S WCI  10
$$
                *** MANITOBA***

CITY           SKY/WX    TMP DP  RH WIND       PRES   REMARKS
BRANDON        CLEAR     16  10  79 NE6       30.40R WCI   7
DAUPHIN        CLEAR     19  12  73 SE3       30.42S
ISLAND LAKE    CLEAR      7   3  85 CALM      30.41S
PILOT MOUND      N/A     14  10  85 N5          N/A  WCI   6
THE PAS        CLEAR     10   1  67 CALM      30.41S
THOMPSON       CLEAR     -2  -4  92 CALM      30.38F
WINNIPEG       NOT AVBL
LYNN LAKE      CLEAR      3  -8  60 SW9       30.33F WCI -11
CHURCHILL      PTCLDY    14   1  57 W18G25    30.18F WCI  -3
GILLAM         CLEAR     10   3  72 SW12      30.34F WCI  -4
$$
                ***SASKATCHEWAN***

CITY           SKY/WX    TMP DP  RH WIND       PRES   REMARKS
ESTEVAN        MOCLDY    21  14  73 E10       30.30S WCI  10
KINDERSLEY     LGT SNOW  25  21  86 SE18G25   30.09F WCI  11
LLOYDMINSTER   CLOUDY    23  18  80 SE22      30.11F WCI   8
PRINCE ALBERT  CLEAR     16   7  67 E6        30.31F WCI   7
REGINA         PTCLDY    23  18  80 SE10      30.27F WCI  12



USA.gov is the U.S. government's official web portal to all federal, state and local government web resources and services.